铱星星座 42星 (IRIDIUM 42)

导读 | 星芒AI

IRIDIUM 42 是 Iridium 卫星通信网络中的一个成员,属于 Iridium NEXT 项目的一部分。该卫星由 SpaceX 于 2017 年发射,旨在提供全球范围内的语音和数据通信服务。它运行在低地球轨道,与其他 Iridium 卫星共同构建了一个覆盖全球的星座系统,广泛应用于航空、航海、政府和应急通信等领域。IRIDIUM 42 具备抗干扰能力强、信号稳定等优点,是现代卫星通信技术的重要组成部分。

基本信息
目录编号:
25077
目录名称:
IRIDIUM 42
国际标识:
1997-077A
轨道中心:
EARTH
卫星名称:
铱星星座 42星
卫星全名:
铱星星座 42星 (IRIDIUM 42)
卫星状态:
在轨 (已飞行10232 天)
发射日期:
1997-12-08 UTC
国别 :
美国 (US)
星等 :
--
轨道信息
数据来源 国际轨道数据 AOE轨道数据
星历时间 2025-12-13T07:53:11+0800
9小时前
查看轨道信息
2025-12-08T20:00:00+0800
4天前
查看轨道信息
半长轴 7148.117km 7148.119km
偏心率 0.0001292 0.0001097
轨道倾角 86.398° 86.398°
近地点辐角 100.837° 91.984°
升交点赤经 164.388° 166.272°
平近点角 259.297° 75.614°
近地点 769.058km 769.199km
远地点 770.906km 770.769km
周期 100.241分钟 100.241分钟
每日圈数 14.365322 14.365315
详细信息
平衡模式:
三轴稳定
覆盖范围:
全球
运营商:
铱星通信公司
运营商所在国:
美国
使用方式:
暂无
卫星简介
铱星(Iridium)是由共66个运作中的通信卫星组成的卫星通信系统。这个系统原本规划77个通信卫星,所以用原子序数为77的铱元素来命名。铱卫星允许人们使用手持型电子设备进行全球性的语音及数据通讯。该卫星已退役。
2D轨道图
3D轨道图
轨道高度分析图
轨道倾角分析图
轨道综合分析图
查看轨道综合分析图